Volver al catálogo

SRH2

ActivoRadioaficionadoPO
NORAD 58643·PAYLOAD·🇩🇪 Germany

Lanzado Dec 24, 2023 desde Vandenberg Space Force Base

Loading…

Próximos Pases (próximas 24 horas)

TLE

EnvejeciendoSource: Mike McCants

Época: Sep 9, 2026, 19:47 UTC

1 58643U 23204A   26252.82485608 0.00000000  00000-0  00000-0 0    08
2 58643  88.2026 116.3900 0003000  93.6041 266.3957 15.20490520    06

Sigue SRH2 en tiempo real con AllMySat

Download on the App Store